,,,PA_Meas_PMT16A,,PR_Meas_QMR101_102,,RH_Meas_QMH101,,SR_Meas_QMS101,,TA_Meas_QMH101,,GenWind,,GenWind,
date,time,status,PA,status,PR,status,RH,status,SR,status,TA,status,DirAvg,status,SpdAvg,
2010-09-05, 00:00:04,VALID,1004.45,VALID,0,VALID,82.3614,VALID,0.100563,VALID,27.09,VALID,101,VALID,1.79609,
2010-09-05, 00:01:04,VALID,1004.42,VALID,0,VALID,82.4224,VALID,0.100563,VALID,27.0706,VALID,79,VALID,0.925,
2010-09-05, 00:02:04,VALID,1004.44,VALID,0,VALID,82.4911,VALID,0,VALID,27.0511,VALID,104,VALID,0.832422,
2010-09-05, 00:03:04,VALID,1004.43,VALID,0,VALID,82.6284,VALID,0.100563,VALID,27.0511,VALID,96,VALID,1.00977,
2010-09-05, 00:04:04,VALID,1004.38,VALID,0,VALID,82.5369,VALID,0.100563,VALID,27.0511,VALID,71,VALID,1.46289,
2010-09-05, 00:05:04,VALID,1004.39,VALID,0,VALID,82.4987,VALID,0,VALID,27.0685,VALID,94,VALID,0.68125,
2010-09-05, 00:06:04,VALID,1004.36,VALID,0,VALID,82.6208,VALID,0.100563,VALID,27.0706,VALID,83,VALID,0.920703,
2010-09-05, 00:07:04,VALID,1004.34,VALID,0,VALID,82.6131,VALID,0.201126,VALID,27.09,VALID,100,VALID,1.31953,
2010-09-05, 00:08:04,VALID,1004.32,VALID,0,VALID,82.3766,VALID,0.100563,VALID,27.09,VALID,76,VALID,1.63086,
2010-09-05, 00:09:04,VALID,1004.31,VALID,0,VALID,82.1173,VALID,0.100563,VALID,27.129,VALID,95,VALID,1.60312,
2010-09-05, 00:10:04,VALID,1004.33,VALID,0,VALID,82.041,VALID,0,VALID,27.1485,VALID,45,VALID,0.563281,
2010-09-05, 00:11:04,VALID,1004.31,VALID,0,VALID,82.1096,VALID,0,VALID,27.129,VALID,20,VALID,0.903906,
2010-09-05, 00:12:04,VALID,1004.34,VALID,0,VALID,82.247,VALID,0,VALID,27.09,VALID,71,VALID,0.660156,
2010-09-05, 00:13:04,VALID,1004.33,VALID,0,VALID,82.369,VALID,0,VALID,27.0511,VALID,38,VALID,0.410547,
2010-09-05, 00:14:04,VALID,1004.33,VALID,0,VALID,82.5292,VALID,0,VALID,27.0336,VALID,34,VALID,0.452344,
2010-09-05, 00:15:04,VALID,1004.31,VALID,0,VALID,82.7276,VALID,0,VALID,27.0142,VALID,33,VALID,0.378516,
2010-09-05, 00:16:04,VALID,1004.28,VALID,0,VALID,82.8039,VALID,0,VALID,26.9557,VALID,47,VALID,1.4082,
2010-09-05, 00:17:04,VALID,1004.3,VALID,0,VALID,82.8268,VALID,0,VALID,26.9752,VALID,66,VALID,1.22227,
2010-09-05, 00:18:04,VALID,1004.27,VALID,0,VALID,82.7276,VALID,0,VALID,26.9967,VALID,75,VALID,1.07695,
2010-09-05, 00:19:04,VALID,1004.29,VALID,0,VALID,82.8191,VALID,0,VALID,26.9947,VALID,93,VALID,1.19883,
2010-09-05, 00:20:04,VALID,1004.27,VALID,0,VALID,82.7199,VALID,0,VALID,26.9947,VALID,93,VALID,1.0793,
2010-09-05, 00:21:04,VALID,1004.25,VALID,0,VALID,82.4529,VALID,0,VALID,27.0316,VALID,84,VALID,1.59141,
2010-09-05, 00:22:04,VALID,1004.27,VALID,0,VALID,82.2012,VALID,0,VALID,27.0706,VALID,99,VALID,1.10781,
2010-09-05, 00:23:04,VALID,1004.23,VALID,0,VALID,82.1096,VALID,0,VALID,27.09,VALID,97,VALID,1.32187,
2010-09-05, 00:24:04,VALID,1004.25,VALID,0,VALID,82.0944,VALID,0,VALID,27.1311,VALID,77,VALID,1.84805,
2010-09-05, 00:25:04,VALID,1004.26,VALID,0,VALID,82.2088,VALID,0,VALID,27.0921,VALID,74,VALID,1.25742,
2010-09-05, 00:26:04,VALID,1004.28,VALID,0,VALID,82.2775,VALID,0,VALID,27.1136,VALID,75,VALID,2.03359,
2010-09-05, 00:27:04,VALID,1004.3,VALID,0,VALID,82.2317,VALID,0,VALID,27.1116,VALID,66,VALID,0.846484,
2010-09-05, 00:28:04,VALID,1004.29,VALID,0,VALID,82.308,VALID,0,VALID,27.1136,VALID,68,VALID,1.37578,
2010-09-05, 00:29:04,VALID,1004.26,VALID,0,VALID,82.4148,VALID,0,VALID,27.0921,VALID,31,VALID,0.376953,
2010-09-05, 00:30:04,VALID,1004.26,VALID,0,VALID,82.5597,VALID,0,VALID,27.0921,VALID,98,VALID,0.829687,
2010-09-05, 00:31:04,VALID,1004.26,VALID,0,VALID,82.636,VALID,0,VALID,27.0726,VALID,59,VALID,0.626953,
2010-09-05, 00:32:04,VALID,1004.25,VALID,0,VALID,82.6589,VALID,0,VALID,27.0747,VALID,34,VALID,0.724609,
2010-09-05, 00:33:04,VALID,1004.26,VALID,0,VALID,82.7352,VALID,0,VALID,27.0336,VALID,86,VALID,0.591016,
2010-09-05, 00:34:04,VALID,1004.22,VALID,0,VALID,82.7581,VALID,0,VALID,26.9947,VALID,37,VALID,0.613672,
2010-09-05, 00:35:04,VALID,1004.22,VALID,0,VALID,82.8268,VALID,0,VALID,26.9752,VALID,84,VALID,1.50039,
2010-09-05, 00:36:04,VALID,1004.22,VALID,0,VALID,82.8115,VALID,0,VALID,26.9557,VALID,103,VALID,1.23281,
2010-09-05, 00:37:04,VALID,1004.19,VALID,0,VALID,82.514,VALID,0,VALID,26.9947,VALID,77,VALID,1.48516,
2010-09-05, 00:38:04,VALID,1004.24,VALID,0,VALID,82.2164,VALID,0,VALID,27.0552,VALID,87,VALID,1.4793,
2010-09-05, 00:39:04,VALID,1004.18,VALID,0,VALID,81.835,VALID,0,VALID,27.0726,VALID,97,VALID,1.98242,
2010-09-05, 00:40:04,VALID,1004.16,VALID,0,VALID,81.5985,VALID,0,VALID,27.1116,VALID,87,VALID,1.52383,
2010-09-05, 00:41:04,VALID,1004.16,VALID,0,VALID,81.5832,VALID,0,VALID,27.1311,VALID,103,VALID,1.36875,
2010-09-05, 00:42:04,VALID,1004.11,VALID,0,VALID,81.6138,VALID,0,VALID,27.1136,VALID,76,VALID,0.682813,
2010-09-05, 00:43:04,VALID,1004.12,VALID,0,VALID,81.568,VALID,0,VALID,27.0726,VALID,110,VALID,2.62617,
2010-09-05, 00:44:04,VALID,1004.13,VALID,0,VALID,81.5985,VALID,0,VALID,27.0921,VALID,101,VALID,1.4082,
2010-09-05, 00:45:04,VALID,1004.11,VALID,0,VALID,81.4841,VALID,0,VALID,27.1136,VALID,110,VALID,2.05703,
2010-09-05, 00:46:04,VALID,1004.09,VALID,0,VALID,81.4764,VALID,0,VALID,27.1136,VALID,19,VALID,0.790234,
2010-09-05, 00:47:04,VALID,1004.05,VALID,0,VALID,81.4078,VALID,0,VALID,27.1136,VALID,109,VALID,1.69805,
2010-09-05, 00:48:04,VALID,1004.04,VALID,0,VALID,81.3467,VALID,0,VALID,27.1136,VALID,74,VALID,1.19453,
2010-09-05, 00:49:04,VALID,1004.05,VALID,0,VALID,81.3925,VALID,0,VALID,27.0942,VALID,47,VALID,1.07148,
2010-09-05, 00:50:04,VALID,1004,VALID,0,VALID,81.5298,VALID,0,VALID,27.0531,VALID,104,VALID,1.54805,
2010-09-05, 00:51:04,VALID,1004.02,VALID,0,VALID,81.4841,VALID,0,VALID,27.0726,VALID,131,VALID,0.744141,
2010-09-05, 00:52:04,VALID,1004,VALID,0,VALID,81.3162,VALID,0,VALID,27.1136,VALID,77,VALID,1.29648,
2010-09-05, 00:53:04,VALID,1004.02,VALID,0,VALID,81.3086,VALID,0,VALID,27.0921,VALID,90,VALID,2.66523,
2010-09-05, 00:54:04,VALID,1003.97,VALID,0,VALID,80.9272,VALID,0,VALID,27.1721,VALID,96,VALID,3.39844,
2010-09-05, 00:55:04,VALID,1003.99,VALID,0,VALID,80.9348,VALID,0,VALID,27.17,VALID,84,VALID,1.28398,
2010-09-05, 00:56:04,VALID,1003.97,VALID,0,VALID,80.9729,VALID,0,VALID,27.1721,VALID,42,VALID,0.916406,
2010-09-05, 00:57:04,VALID,1003.92,VALID,0,VALID,80.9272,VALID,0,VALID,27.1095,VALID,92,VALID,1.57383,
2010-09-05, 00:58:04,VALID,1003.97,VALID,0,VALID,81.0034,VALID,0,VALID,27.1506,VALID,67,VALID,1.68711,
2010-09-05, 00:59:04,VALID,1003.9,VALID,0,VALID,81.0263,VALID,0,VALID,27.129,VALID,103,VALID,1.35664,
2010-09-05, 01:00:04,VALID,1003.88,VALID,0,VALID,80.9958,VALID,0,VALID,27.1095,VALID,96,VALID,2.50234,
2010-09-05, 01:01:04,VALID,1003.81,VALID,0,VALID,80.9424,VALID,0,VALID,27.1485,VALID,115,VALID,1.98906,
2010-09-05, 01:02:04,VALID,1003.79,VALID,0,VALID,81.0034,VALID,0,VALID,27.1506,VALID,75,VALID,1.48867,
2010-09-05, 01:03:04,VALID,1003.8,VALID,0,VALID,81.0797,VALID,0,VALID,27.1311,VALID,61,VALID,1.85859,
2010-09-05, 01:04:04,VALID,1003.77,VALID,0,VALID,81.156,VALID,0,VALID,27.1311,VALID,20,VALID,1.61367,
2010-09-05, 01:05:04,VALID,1003.76,VALID,0,VALID,81.2323,VALID,0,VALID,27.0706,VALID,83,VALID,1.71484,
2010-09-05, 01:06:04,VALID,1003.72,VALID,0,VALID,81.4002,VALID,0,VALID,27.0511,VALID,66,VALID,0.979297,
2010-09-05, 01:07:04,VALID,1003.74,VALID,0,VALID,81.6214,VALID,0,VALID,27.0316,VALID,75,VALID,0.739844,
2010-09-05, 01:08:04,VALID,1003.68,VALID,0,VALID,81.7892,VALID,0.100563,VALID,26.9732,VALID,93,VALID,0.966016,
2010-09-05, 01:09:04,VALID,1003.7,VALID,0,VALID,81.9265,VALID,0,VALID,26.9342,VALID,92,VALID,0.828516,
2010-09-05, 01:10:04,VALID,1003.69,VALID,0,VALID,81.9876,VALID,0,VALID,26.8952,VALID,73,VALID,0.467578,
2010-09-05, 01:11:04,VALID,1003.64,VALID,0,VALID,82.0562,VALID,0,VALID,26.9383,VALID,76,VALID,1.925,
2010-09-05, 01:12:04,VALID,1003.66,VALID,0,VALID,82.0333,VALID,0,VALID,26.9167,VALID,84,VALID,1.98203,
2010-09-05, 01:13:04,VALID,1003.62,VALID,0,VALID,82.0181,VALID,0,VALID,26.9362,VALID,106,VALID,1.57734,
2010-09-05, 01:14:04,VALID,1003.61,VALID,0,VALID,82.0257,VALID,0,VALID,26.9167,VALID,45,VALID,0.567187,
2010-09-05, 01:15:04,VALID,1003.64,VALID,0,VALID,82.1173,VALID,0,VALID,26.8973,VALID,112,VALID,0.873438,
2010-09-05, 01:16:04,VALID,1003.6,VALID,0,VALID,82.1707,VALID,0,VALID,26.8778,VALID,98,VALID,1.51211,
2010-09-05, 01:17:04,VALID,1003.56,VALID,0,VALID,82.1325,VALID,0,VALID,26.8973,VALID,73,VALID,1.59219,
2010-09-05, 01:18:04,VALID,1003.51,VALID,0,VALID,82.1249,VALID,0,VALID,26.8973,VALID,103,VALID,1.15234,
2010-09-05, 01:19:04,VALID,1003.49,VALID,0,VALID,81.9418,VALID,0,VALID,26.9167,VALID,95,VALID,2.46445,
2010-09-05, 01:20:04,VALID,1003.46,VALID,0,VALID,81.9189,VALID,0,VALID,26.9383,VALID,76,VALID,0.903516,
2010-09-05, 01:21:04,VALID,1003.41,VALID,0,VALID,81.9723,VALID,0,VALID,26.9188,VALID,58,VALID,0.771094,
2010-09-05, 01:22:04,VALID,1003.43,VALID,0,VALID,82.0486,VALID,0,VALID,26.8583,VALID,32,VALID,1.14023,
2010-09-05, 01:23:04,VALID,1003.37,VALID,0,VALID,82.0486,VALID,0,VALID,26.8798,VALID,98,VALID,1.8832,
2010-09-05, 01:24:04,VALID,1003.35,VALID,0,VALID,81.9265,VALID,0,VALID,26.8973,VALID,95,VALID,1.74414,
2010-09-05, 01:25:04,VALID,1003.34,VALID,0,VALID,81.896,VALID,0,VALID,26.8778,VALID,80,VALID,1.18438,
2010-09-05, 01:26:04,VALID,1003.26,VALID,0,VALID,81.835,VALID,0,VALID,26.8993,VALID,60,VALID,1.49219,
2010-09-05, 01:27:04,VALID,1003.23,VALID,0,VALID,81.835,VALID,0,VALID,26.8973,VALID,103,VALID,0.381641,
2010-09-05, 01:28:04,VALID,1003.24,VALID,0,VALID,81.9037,VALID,0,VALID,26.8778,VALID,74,VALID,1.10625,
2010-09-05, 01:29:04,VALID,1003.2,VALID,0,VALID,81.9418,VALID,0,VALID,26.8583,VALID,93,VALID,0.791406,
2010-09-05, 01:30:04,VALID,1003.19,VALID,0,VALID,81.9799,VALID,0,VALID,26.8583,VALID,11,VALID,1.02227,
2010-09-05, 01:31:04,VALID,1003.21,VALID,0,VALID,81.9952,VALID,0,VALID,26.8173,VALID,105,VALID,1.35039,
2010-09-05, 01:32:04,VALID,1003.17,VALID,0,VALID,81.8884,VALID,0,VALID,26.8388,VALID,92,VALID,1.45547,
2010-09-05, 01:33:04,VALID,1003.14,VALID,0,VALID,81.6748,VALID,0,VALID,26.8778,VALID,80,VALID,1.40234,
2010-09-05, 01:34:04,VALID,1003.12,VALID,0,VALID,81.4841,VALID,0,VALID,26.8973,VALID,98,VALID,1.96992,
2010-09-05, 01:35:04,VALID,1003.11,VALID,0,VALID,81.4612,VALID,0,VALID,26.8973,VALID,97,VALID,0.734375,
2010-09-05, 01:36:04,VALID,1003.12,VALID,0,VALID,81.4154,VALID,0,VALID,26.8757,VALID,114,VALID,1.59727,
2010-09-05, 01:37:04,VALID,1003.09,VALID,0,VALID,81.3315,VALID,0,VALID,26.9147,VALID,76,VALID,0.941406,
2010-09-05, 01:38:04,VALID,1003.14,VALID,0,VALID,81.2552,VALID,0,VALID,26.9362,VALID,90,VALID,1.03516,
2010-09-05, 01:39:04,VALID,1003.06,VALID,0,VALID,81.2857,VALID,0,VALID,26.8952,VALID,64,VALID,0.833203,
2010-09-05, 01:40:04,VALID,1003.03,VALID,0,VALID,81.5298,VALID,0,VALID,26.8563,VALID,88,VALID,0.255078,
2010-09-05, 01:41:04,VALID,1003.08,VALID,0,VALID,81.7129,VALID,0,VALID,26.8388,VALID,88,VALID,0.354297,
2010-09-05, 01:42:04,VALID,1003.08,VALID,0,VALID,81.7435,VALID,0,VALID,26.7589,VALID,82,VALID,1.77578,
2010-09-05, 01:43:04,VALID,1003.12,VALID,0,VALID,81.7511,VALID,0,VALID,26.7998,VALID,100,VALID,1.84766,
2010-09-05, 01:44:04,VALID,1003.11,VALID,0,VALID,81.6367,VALID,0,VALID,26.7978,VALID,69,VALID,2.00156,
2010-09-05, 01:45:04,VALID,1003.08,VALID,0,VALID,81.7435,VALID,0,VALID,26.7998,VALID,83,VALID,0.852734,
2010-09-05, 01:46:04,VALID,1003.04,VALID,0,VALID,81.7511,VALID,0,VALID,26.7998,VALID,92,VALID,0.966797,
2010-09-05, 01:47:04,VALID,1003.02,VALID,0,VALID,81.8579,VALID,0,VALID,26.7609,VALID,84,VALID,1.15039,
2010-09-05, 01:48:04,VALID,1002.96,VALID,0,VALID,81.9952,VALID,0,VALID,26.7394,VALID,72,VALID,0.967969,
2010-09-05, 01:49:04,VALID,1002.96,VALID,0,VALID,82.1936,VALID,0,VALID,26.7024,VALID,97,VALID,1.13008,
2010-09-05, 01:50:04,VALID,1002.93,VALID,0,VALID,82.2927,VALID,0,VALID,26.642,VALID,56,VALID,0.588672,
2010-09-05, 01:51:04,VALID,1002.94,VALID,0,VALID,82.4377,VALID,0.100563,VALID,26.6635,VALID,47,VALID,0.658203,
2010-09-05, 01:52:04,VALID,1002.94,VALID,0,VALID,82.4758,VALID,0,VALID,26.6225,VALID,86,VALID,0.898047,
2010-09-05, 01:53:04,VALID,1002.93,VALID,0,VALID,82.4377,VALID,0,VALID,26.644,VALID,60,VALID,0.942578,
2010-09-05, 01:54:04,VALID,1002.88,VALID,0,VALID,82.4301,VALID,0,VALID,26.6635,VALID,116,VALID,1.95195,
2010-09-05, 01:55:04,VALID,1002.9,VALID,0,VALID,82.4301,VALID,0,VALID,26.6635,VALID,93,VALID,0.527734,
2010-09-05, 01:56:04,VALID,1002.9,VALID,0,VALID,82.3919,VALID,0,VALID,26.6635,VALID,99,VALID,0.845703,
2010-09-05, 01:57:04,VALID,1002.92,VALID,0,VALID,82.3538,VALID,0,VALID,26.6614,VALID,93,VALID,1.22539,
2010-09-05, 01:58:04,VALID,1002.89,VALID,0,VALID,82.3232,VALID,0,VALID,26.683,VALID,104,VALID,1.12773,
2010-09-05, 01:59:04,VALID,1002.91,VALID,0,VALID,82.3538,VALID,0,VALID,26.6635,VALID,90,VALID,1.2543,
2010-09-05, 02:00:04,VALID,1002.92,VALID,0,VALID,82.3004,VALID,0,VALID,26.7045,VALID,98,VALID,0.917578,
2010-09-05, 02:01:04,VALID,1002.95,VALID,0,VALID,82.1325,VALID,0,VALID,26.7219,VALID,69,VALID,1.38164,
2010-09-05, 02:02:04,VALID,1002.95,VALID,0,VALID,81.9571,VALID,0,VALID,26.7414,VALID,45,VALID,0.954687,
2010-09-05, 02:03:04,VALID,1002.96,VALID,0,VALID,81.69,VALID,0,VALID,26.8193,VALID,85,VALID,2.20234,
2010-09-05, 02:04:04,VALID,1002.97,VALID,0,VALID,81.4078,VALID,0,VALID,26.8583,VALID,93,VALID,1.87969,
2010-09-05, 02:05:04,VALID,1002.95,VALID,0,VALID,81.1789,VALID,0,VALID,26.8973,VALID,119,VALID,1.7918,
2010-09-05, 02:06:04,VALID,1002.96,VALID,0,VALID,81.095,VALID,0,VALID,26.9362,VALID,80,VALID,0.760547,
2010-09-05, 02:07:04,VALID,1003,VALID,0,VALID,81.0569,VALID,0,VALID,26.9167,VALID,54,VALID,1.77109,
2010-09-05, 02:08:04,VALID,1002.95,VALID,0,VALID,81.0645,VALID,0,VALID,26.9557,VALID,111,VALID,2.35586,
2010-09-05, 02:09:04,VALID,1002.96,VALID,0,VALID,81.0187,VALID,0,VALID,26.9557,VALID,101,VALID,1.43203,
2010-09-05, 02:10:04,VALID,1002.96,VALID,0,VALID,81.0492,VALID,0.100563,VALID,26.9537,VALID,107,VALID,1.00742,
2010-09-05, 02:11:04,VALID,1002.97,VALID,0,VALID,81.2247,VALID,0.100563,VALID,26.8932,VALID,84,VALID,0.669531,
2010-09-05, 02:12:04,VALID,1002.99,VALID,0,VALID,81.3544,VALID,0.100563,VALID,26.8563,VALID,103,VALID,1.33516,
2010-09-05, 02:13:04,VALID,1002.97,VALID,0,VALID,81.5375,VALID,0.100563,VALID,26.8368,VALID,20,VALID,1.3207,
2010-09-05, 02:14:04,VALID,1002.97,VALID,0,VALID,81.7358,VALID,0.100563,VALID,26.7568,VALID,92,VALID,1.53047,
2010-09-05, 02:15:04,VALID,1002.99,VALID,0,VALID,81.8274,VALID,0,VALID,26.7783,VALID,100,VALID,0.804688,
2010-09-05, 02:16:04,VALID,1002.99,VALID,0,VALID,81.8579,VALID,0.100563,VALID,26.7589,VALID,85,VALID,1.74883,
2010-09-05, 02:17:04,VALID,1003,VALID,0,VALID,81.8426,VALID,0.100563,VALID,26.7978,VALID,96,VALID,1.43008,
2010-09-05, 02:18:04,VALID,1002.99,VALID,0,VALID,81.6672,VALID,0.100563,VALID,26.8173,VALID,55,VALID,1.59844,
2010-09-05, 02:19:04,VALID,1002.96,VALID,0,VALID,81.6214,VALID,0.100563,VALID,26.8173,VALID,55,VALID,1.29492,
2010-09-05, 02:20:04,VALID,1002.95,VALID,0,VALID,81.4917,VALID,0.100563,VALID,26.7958,VALID,99,VALID,1.30625,
2010-09-05, 02:21:04,VALID,1002.92,VALID,0,VALID,81.2552,VALID,0,VALID,26.8757,VALID,103,VALID,1.92578,
2010-09-05, 02:22:04,VALID,1002.92,VALID,0,VALID,81.0721,VALID,0,VALID,26.9147,VALID,106,VALID,2.03281,
2010-09-05, 02:23:04,VALID,1002.91,VALID,0,VALID,81.1103,VALID,0.100563,VALID,26.8737,VALID,113,VALID,1.44453,
2010-09-05, 02:24:04,VALID,1002.89,VALID,0,VALID,81.2323,VALID,0.100563,VALID,26.8757,VALID,107,VALID,2.23828,
2010-09-05, 02:25:04,VALID,1002.88,VALID,0,VALID,81.2781,VALID,0,VALID,26.8778,VALID,109,VALID,1.78281,
2010-09-05, 02:26:04,VALID,1002.88,VALID,0,VALID,81.362,VALID,0,VALID,26.8388,VALID,88,VALID,1.30391,
2010-09-05, 02:27:04,VALID,1002.86,VALID,0,VALID,81.4917,VALID,0,VALID,26.8388,VALID,84,VALID,2.89141,
2010-09-05, 02:28:04,VALID,1002.86,VALID,0,VALID,81.4307,VALID,0,VALID,26.8583,VALID,100,VALID,1.88555,
2010-09-05, 02:29:04,VALID,1002.82,VALID,0,VALID,81.4688,VALID,0,VALID,26.8388,VALID,87,VALID,1.56328,
2010-09-05, 02:30:04,VALID,1002.83,VALID,0,VALID,81.5985,VALID,0,VALID,26.7998,VALID,52,VALID,0.282031,
2010-09-05, 02:31:04,VALID,1002.8,VALID,0,VALID,81.8121,VALID,0,VALID,26.7609,VALID,63,VALID,0.602344,
2010-09-05, 02:32:04,VALID,1002.77,VALID,0,VALID,82.0028,VALID,0,VALID,26.7609,VALID,98,VALID,1.00547,
2010-09-05, 02:33:04,VALID,1002.82,VALID,0,VALID,81.9342,VALID,0,VALID,26.7609,VALID,74,VALID,1.65898,
2010-09-05, 02:34:04,VALID,1002.79,VALID,0,VALID,81.7663,VALID,0,VALID,26.7783,VALID,104,VALID,1.70117,
2010-09-05, 02:35:04,VALID,1002.81,VALID,0,VALID,81.6748,VALID,0,VALID,26.7998,VALID,37,VALID,0.629687,
2010-09-05, 02:36:04,VALID,1002.83,VALID,0,VALID,81.7282,VALID,0,VALID,26.7804,VALID,54,VALID,1.6332,
2010-09-05, 02:37:04,VALID,1002.82,VALID,0,VALID,81.8655,VALID,0,VALID,26.7414,VALID,89,VALID,0.955469,
2010-09-05, 02:38:04,VALID,1002.84,VALID,0,VALID,81.9189,VALID,0,VALID,26.7414,VALID,84,VALID,0.464453,
2010-09-05, 02:39:04,VALID,1002.8,VALID,0,VALID,81.896,VALID,0,VALID,26.7199,VALID,108,VALID,1.64844,
2010-09-05, 02:40:04,VALID,1002.81,VALID,0,VALID,81.8503,VALID,0,VALID,26.7394,VALID,90,VALID,0.814844,
2010-09-05, 02:41:04,VALID,1002.82,VALID,0,VALID,81.6367,VALID,0,VALID,26.7394,VALID,31,VALID,1.85039,
2010-09-05, 02:42:04,VALID,1002.86,VALID,0,VALID,81.5604,VALID,0,VALID,26.7589,VALID,71,VALID,2.07969,
2010-09-05, 02:43:04,VALID,1002.85,VALID,0,VALID,81.4307,VALID,0.100563,VALID,26.8173,VALID,127,VALID,1.13086,
2010-09-05, 02:44:04,VALID,1002.84,VALID,0,VALID,81.2705,VALID,0,VALID,26.8173,VALID,107,VALID,2.71719,
2010-09-05, 02:45:04,VALID,1002.81,VALID,0,VALID,81.1408,VALID,0,VALID,26.8583,VALID,102,VALID,1.31133,
2010-09-05, 02:46:04,VALID,1002.82,VALID,0,VALID,81.0797,VALID,0,VALID,26.8368,VALID,93,VALID,1.21406,
2010-09-05, 02:47:04,VALID,1002.84,VALID,0,VALID,81.0721,VALID,0,VALID,26.8583,VALID,100,VALID,1.77656,
2010-09-05, 02:48:04,VALID,1002.83,VALID,0,VALID,81.2247,VALID,0,VALID,26.8368,VALID,119,VALID,0.619531,
2010-09-05, 02:49:04,VALID,1002.83,VALID,0,VALID,81.2171,VALID,0,VALID,26.8173,VALID,113,VALID,1.37188,
2010-09-05, 02:50:04,VALID,1002.84,VALID,0,VALID,81.3086,VALID,0,VALID,26.8193,VALID,89,VALID,0.766016,
2010-09-05, 02:51:04,VALID,1002.86,VALID,0,VALID,81.4688,VALID,0,VALID,26.7998,VALID,93,VALID,0.833984,
2010-09-05, 02:52:04,VALID,1002.87,VALID,0,VALID,81.4154,VALID,0,VALID,26.7978,VALID,85,VALID,1.78281,
2010-09-05, 02:53:04,VALID,1002.87,VALID,0,VALID,81.4002,VALID,0,VALID,26.8193,VALID,27,VALID,0.494531,
2010-09-05, 02:54:04,VALID,1002.89,VALID,0,VALID,81.5604,VALID,0,VALID,26.8193,VALID,100,VALID,1.78125,
2010-09-05, 02:55:04,VALID,1002.9,VALID,0,VALID,81.4917,VALID,0.100563,VALID,26.8368,VALID,90,VALID,1.41797,
2010-09-05, 02:56:04,VALID,1002.9,VALID,0,VALID,81.4612,VALID,0,VALID,26.8388,VALID,92,VALID,0.922266,
2010-09-05, 02:57:04,VALID,1002.89,VALID,0,VALID,81.5298,VALID,0,VALID,26.8368,VALID,95,VALID,1.37227,
2010-09-05, 02:58:04,VALID,1002.86,VALID,0,VALID,81.4536,VALID,0.100563,VALID,26.8368,VALID,58,VALID,0.5625,
2010-09-05, 02:59:04,VALID,1002.88,VALID,0,VALID,81.4688,VALID,0,VALID,26.8368,VALID,91,VALID,0.655469,
2010-09-05, 03:00:04,VALID,1002.85,VALID,0,VALID,81.6977,VALID,0,VALID,26.7978,VALID,94,VALID,0.544922,
2010-09-05, 03:01:04,VALID,1002.84,VALID,0,VALID,82.0028,VALID,0,VALID,26.7998,VALID,38,VALID,1.10625,
2010-09-05, 03:02:04,VALID,1002.87,VALID,0,VALID,82.1936,VALID,0,VALID,26.7609,VALID,96,VALID,1.61992,
2010-09-05, 03:03:04,VALID,1002.89,VALID,0,VALID,82.2927,VALID,0,VALID,26.7609,VALID,55,VALID,0.616406,
2010-09-05, 03:04:04,VALID,1002.83,VALID,0,VALID,82.4606,VALID,0,VALID,26.7004,VALID,89,VALID,0.6125,
2010-09-05, 03:05:04,VALID,1002.84,VALID,0,VALID,82.5597,VALID,0,VALID,26.6809,VALID,44,VALID,1.04766,
2010-09-05, 03:06:04,VALID,1002.85,VALID,0,VALID,82.6513,VALID,0,VALID,26.6614,VALID,30,VALID,0.747266,
2010-09-05, 03:07:04,VALID,1002.86,VALID,0,VALID,82.7505,VALID,0,VALID,26.642,VALID,69,VALID,1.44375,
2010-09-05, 03:08:04,VALID,1002.82,VALID,0,VALID,82.8039,VALID,0,VALID,26.603,VALID,81,VALID,0.925391,
2010-09-05, 03:09:04,VALID,1002.83,VALID,0,VALID,82.8344,VALID,0,VALID,26.603,VALID,75,VALID,1.45625,
2010-09-05, 03:10:04,VALID,1002.81,VALID,0,VALID,82.8725,VALID,0,VALID,26.603,VALID,24,VALID,1.02773,
2010-09-05, 03:11:04,VALID,1002.8,VALID,0,VALID,82.9336,VALID,0,VALID,26.5835,VALID,35,VALID,0.488672,
2010-09-05, 03:12:04,VALID,1002.82,VALID,0,VALID,83.0556,VALID,0,VALID,26.5661,VALID,93,VALID,1.42656,
2010-09-05, 03:13:04,VALID,1002.85,VALID,0,VALID,83.1624,VALID,0,VALID,26.5661,VALID,76,VALID,1.71836,
2010-09-05, 03:14:04,VALID,1002.79,VALID,0,VALID,83.1701,VALID,0,VALID,26.5466,VALID,43,VALID,0.905469,
2010-09-05, 03:15:04,VALID,1002.82,VALID,0,VALID,83.0785,VALID,0,VALID,26.605,VALID,66,VALID,1.09375,
2010-09-05, 03:16:04,VALID,1002.8,VALID,0,VALID,82.8954,VALID,0,VALID,26.644,VALID,55,VALID,1.39727,
2010-09-05, 03:17:04,VALID,1002.82,VALID,0,VALID,82.7123,VALID,0.100563,VALID,26.6614,VALID,85,VALID,1.22383,
2010-09-05, 03:18:04,VALID,1002.78,VALID,0,VALID,82.5903,VALID,0,VALID,26.6614,VALID,83,VALID,0.951953,
2010-09-05, 03:19:04,VALID,1002.79,VALID,0,VALID,82.6208,VALID,0.100563,VALID,26.642,VALID,88,VALID,1.64023,
2010-09-05, 03:20:04,VALID,1002.8,VALID,0,VALID,82.7734,VALID,0.100563,VALID,26.603,VALID,2,VALID,0.741406,
2010-09-05, 03:21:04,VALID,1002.75,VALID,0,VALID,82.987,VALID,0.100563,VALID,26.5446,VALID,30,VALID,0.735547,
2010-09-05, 03:22:04,VALID,1002.77,VALID,0,VALID,83.2158,VALID,0,VALID,26.5271,VALID,32,VALID,1.11758,
2010-09-05, 03:23:04,VALID,1002.76,VALID,0,VALID,83.4371,VALID,0,VALID,26.4687,VALID,60,VALID,0.962891,
2010-09-05, 03:24:04,VALID,1002.79,VALID,0,VALID,83.4828,VALID,0,VALID,26.4667,VALID,75,VALID,1.04961,
2010-09-05, 03:25:04,VALID,1002.77,VALID,0,VALID,83.4981,VALID,0,VALID,26.4472,VALID,68,VALID,0.834375,
2010-09-05, 03:26:04,VALID,1002.76,VALID,0,VALID,83.643,VALID,0,VALID,26.4277,VALID,36,VALID,1.08047,
2010-09-05, 03:27:04,VALID,1002.78,VALID,0,VALID,83.7804,VALID,0,VALID,26.3887,VALID,30,VALID,1.05156,
2010-09-05, 03:28:04,VALID,1002.78,VALID,0,VALID,83.8872,VALID,0,VALID,26.3693,VALID,90,VALID,0.821094,
2010-09-05, 03:29:04,VALID,1002.83,VALID,0,VALID,83.994,VALID,0,VALID,26.3498,VALID,34,VALID,1.0793,
2010-09-05, 03:30:04,VALID,1002.84,VALID,0,VALID,84.0092,VALID,0.100563,VALID,26.3478,VALID,119,VALID,1.97891,
2010-09-05, 03:31:04,VALID,1002.83,VALID,0,VALID,83.8719,VALID,0,VALID,26.4297,VALID,54,VALID,0.90625,
2010-09-05, 03:32:04,VALID,1002.82,VALID,0,VALID,83.8033,VALID,0,VALID,26.4102,VALID,350,VALID,0.689844,
2010-09-05, 03:33:04,VALID,1002.84,VALID,0,VALID,83.727,VALID,0,VALID,26.3498,VALID,5,VALID,1.23359,
2010-09-05, 03:34:04,VALID,1002.88,VALID,0,VALID,83.8033,VALID,0.100563,VALID,26.3518,VALID,27,VALID,0.440234,
2010-09-05, 03:35:04,VALID,1002.87,VALID,0,VALID,84.0779,VALID,0,VALID,26.3128,VALID,50,VALID,1.13398,
2010-09-05, 03:36:04,VALID,1002.91,VALID,0,VALID,83.8643,VALID,0,VALID,26.4082,VALID,88,VALID,1.89297,
2010-09-05, 03:37:04,VALID,1002.92,VALID,0,VALID,83.4142,VALID,0,VALID,26.4297,VALID,15,VALID,0.997656,
2010-09-05, 03:38:04,VALID,1002.94,VALID,0,VALID,83.6202,VALID,0,VALID,26.3303,VALID,21,VALID,0.953516,
2010-09-05, 03:39:04,VALID,1002.95,VALID,0,VALID,83.8261,VALID,0,VALID,26.2719,VALID,2,VALID,0.721875,
2010-09-05, 03:40:04,VALID,1002.96,VALID,0,VALID,84.4822,VALID,0,VALID,26.157,VALID,15,VALID,1.54883,
2010-09-05, 03:41:04,VALID,1002.98,VALID,0,VALID,84.8179,VALID,0,VALID,26.1355,VALID,358,VALID,0.834766,
2010-09-05, 03:42:04,VALID,1002.99,VALID,0,VALID,84.7797,VALID,0,VALID,26.1355,VALID,11,VALID,0.823047,
2010-09-05, 03:43:04,VALID,1003.02,VALID,0,VALID,84.6806,VALID,0,VALID,26.116,VALID,5,VALID,0.56875,
2010-09-05, 03:44:04,VALID,1003.05,VALID,0,VALID,84.8789,VALID,0,VALID,26.0791,VALID,353,VALID,1.05039,
2010-09-05, 03:45:04,VALID,1003.09,VALID,0,VALID,85.1612,VALID,0,VALID,26.0012,VALID,350,VALID,0.611719,